Weather History for La Porte, IN

Change the Weather History Date:

Wednesday, January 30, 2013

  Actual Average (KVPZ) Record (KVPZ)
Temperature  
Mean Temperature 37 °F 24 °F  
Max Temperature 51 °F 32 °F 53 °F (2013)
Min Temperature 23 °F 16 °F -7 °F (2004)
Degree Days  
Heating Degree Days 28 41  
Month to date heating degree days 1245  
Since 1 July heating degree days 3647  
Cooling Degree Days 0 0  
Month to date cooling degree days 0  
Year to date cooling degree days 0  
Moisture  
Dew Point 37 °F    
Average Humidity 95    
Maximum Humidity 100    
Minimum Humidity 77    
Precipitation  
Precipitation 0.27 in 0.06 in 0.80 in (2002)
Month to date precipitation 1.69  
Year to date precipitation 1.69  
Sea Level Pressure  
Sea Level Pressure 29.34 in    
Wind  
Wind Speed 8 mph (West)    
Max Wind Speed 23 mph    
Max Gust Speed 34 mph    
Visibility 4 miles    
Events Fog , Rain , Snow    
T = Trace of Precipitation, MM = Missing Value Source: NWS Daily Summary

Daily Weather History Graph

Daily Weather History Graph

Search for Another Location

Airport:

Trip Planner

Search our weather history database for the weather conditions in past years. The results will help you decide how hot, cold, wet, or windy it might be!

Date:

Astronomy

Jan. 30, 2013 Rise Set
Actual Time 7:00 AM CST 5:00 PM CST
Civil Twilight 6:30 AM CST 5:30 PM CST
Nautical Twilight 5:57 AM CST 6:03 PM CST
Astronomical Twilight 5:25 AM CST 6:36 PM CST
Moon 9:02 PM CST (1/30) 8:24 AM CST (1/30)
Length of Visible Light 10h 59m
Length of Day
10h 00m
Waning Gibbous, 87% of the Moon is Illuminated
Jan 30
Waning Gibbous
Feb 3
Last Quarter
Feb 10
New
Feb 17
First Quarter
Feb 25
Full

Hourly Weather History & Observations

Time (CST) Temp. Windchill Dew Point Humidity Pressure Visibility Wind Dir Wind Speed Gust Speed Precip Events Conditions
12:15 AM 51.8 °F - 51.8 °F 100% 29.39 in 7.0 mi WNW 4.6 mph - 0.02 in Rain Light Rain
12:35 AM 51.4 °F - 51.4 °F 100% 29.40 in 7.0 mi WSW 3.5 mph - 0.03 in Rain Light Rain
12:55 AM 50.2 °F - 50.2 °F 100% 29.39 in 2.0 mi Calm Calm - 0.06 in Rain Rain
1:15 AM 50.2 °F - 50.2 °F 100% 29.39 in 0.5 mi SSE 3.5 mph - 0.02 in Rain Light Rain
1:35 AM 49.3 °F - 49.3 °F 100% 29.36 in 0.2 mi SSE 5.8 mph - 0.04 in Rain Rain
1:55 AM 49.5 °F - 49.5 °F 100% 29.36 in 0.2 mi SSE 5.8 mph - 0.06 in Rain Light Rain
2:15 AM 49.8 °F - 49.8 °F 100% 29.37 in 0.2 mi SW 4.6 mph - 0.02 in Rain Light Rain
2:35 AM 49.3 °F - 49.3 °F 100% 29.37 in 0.5 mi WSW 4.6 mph - 0.05 in Rain Light Rain
2:55 AM 49.5 °F - 49.5 °F 100% 29.39 in 1.2 mi WSW 6.9 mph - 0.07 in Rain Rain
3:15 AM 49.3 °F - 49.3 °F 100% 29.39 in 3.0 mi WSW 6.9 mph - 0.02 in Rain Light Rain
3:35 AM 49.1 °F - 49.1 °F 100% 29.39 in 2.5 mi WSW 6.9 mph - 0.04 in Rain Rain
3:55 AM 43.3 °F 37.7 °F 43.3 °F 100% 29.37 in 4.0 mi NW 10.4 mph - 0.05 in Rain Rain
4:15 AM 41.2 °F 36.0 °F 41.2 °F 100% 29.35 in 10.0 mi NNW 8.1 mph - N/A   Light Drizzle
4:35 AM 40.6 °F 36.7 °F 40.6 °F 100% 29.31 in 10.0 mi NNE 5.8 mph - 0.01 in Rain Rain
4:55 AM 40.6 °F 38.6 °F 40.6 °F 100% 29.30 in 10.0 mi NNE 3.5 mph - 0.01 in   Overcast
5:15 AM 40.5 °F 33.6 °F 40.5 °F 100% 29.38 in 10.0 mi WNW 11.5 mph 19.6 mph N/A   Overcast
5:35 AM 39.4 °F 35.2 °F 39.4 °F 100% 29.36 in 1.0 mi WNW 5.8 mph 16.1 mph N/A   Light Drizzle
5:55 AM 39.2 °F 35.9 °F 39.2 °F 100% 29.33 in 0.5 mi NW 4.6 mph - N/A Rain Light Rain
6:15 AM 39.0 °F 34.0 °F 39.0 °F 100% 29.32 in 0.5 mi NNW 6.9 mph - N/A Fog Fog
6:35 AM 38.8 °F 35.4 °F 38.8 °F 100% 29.31 in 1.0 mi North 4.6 mph - N/A   Overcast
6:55 AM 38.8 °F 36.5 °F 38.8 °F 100% 29.31 in 1.5 mi NNW 3.5 mph - N/A   Overcast
7:15 AM 38.8 °F - 38.8 °F 100% 29.31 in 2.0 mi Calm Calm - N/A   Drizzle
7:35 AM 38.7 °F 35.2 °F 38.7 °F 100% 29.34 in 1.2 mi WNW 4.6 mph - N/A Rain Rain
7:55 AM 38.5 °F 36.1 °F 38.5 °F 100% 29.35 in 1.5 mi WNW 3.5 mph - N/A   Drizzle
8:15 AM 38.5 °F - 38.5 °F 100% 29.33 in 1.8 mi Calm Calm - N/A   Drizzle
8:35 AM 38.5 °F - 38.5 °F 100% 29.33 in 1.8 mi Calm Calm - N/A   Drizzle
8:55 AM 38.5 °F - 38.5 °F 100% 29.32 in 1.8 mi Calm Calm - 0.01 in   Drizzle
9:15 AM 38.5 °F - 38.5 °F 100% 29.30 in 2.5 mi Calm Calm - N/A   Drizzle
9:35 AM 38.8 °F - 38.8 °F 100% 29.29 in 3.0 mi Calm Calm - N/A   Light Drizzle
9:55 AM 39.2 °F 37.0 °F 39.2 °F 100% 29.30 in 4.0 mi South 3.5 mph - N/A   Overcast
10:15 AM 39.2 °F 37.0 °F 39.2 °F 100% 29.28 in 3.0 mi South 3.5 mph - N/A   Overcast
10:35 AM 39.4 °F 36.1 °F 39.4 °F 100% 29.27 in 1.0 mi South 4.6 mph - N/A   Overcast
10:55 AM 40.1 °F 38.0 °F 40.1 °F 100% 29.26 in 1.2 mi SSE 3.5 mph - N/A   Overcast
11:15 AM 40.3 °F 36.3 °F 40.3 °F 100% 29.25 in 0.8 mi South 5.8 mph - N/A   Overcast
11:35 AM 42.1 °F 37.1 °F 42.1 °F 100% 29.23 in 1.2 mi South 8.1 mph - N/A   Light Drizzle
11:55 AM 43.3 °F 38.6 °F 43.3 °F 100% 29.22 in 1.0 mi SSW 8.1 mph - N/A   Overcast
12:15 PM 45.3 °F 41.1 °F 45.3 °F 100% 29.20 in 5.0 mi SSW 8.1 mph - N/A   Overcast
12:35 PM 47.5 °F - 47.5 °F 100% 29.21 in 10.0 mi SW 11.5 mph 19.6 mph N/A   Overcast
12:55 PM 47.3 °F - 47.3 °F 100% 29.19 in 7.0 mi SW 17.3 mph 26.5 mph N/A Rain Rain
1:15 PM 47.5 °F - 44.2 °F 89% 29.18 in 10.0 mi SW 19.6 mph 25.3 mph N/A   Overcast
1:35 PM 45.9 °F 38.3 °F 42.8 °F 89% 29.18 in 10.0 mi WSW 19.6 mph 28.8 mph N/A Rain Rain
2:15 PM 41.2 °F 31.9 °F 38.5 °F 90% 29.21 in 10.0 mi WSW 20.7 mph 32.2 mph N/A   Overcast
2:35 PM 39.2 °F 28.7 °F 36.9 °F 91% 29.20 in 10.0 mi West 23.0 mph 31.1 mph N/A   Overcast
2:55 PM 38.8 °F 29.4 °F 36.0 °F 89% 29.22 in 10.0 mi WSW 18.4 mph 27.6 mph N/A   Overcast
3:15 PM 38.3 °F 29.0 °F 34.9 °F 87% 29.24 in 10.0 mi SW 17.3 mph 25.3 mph N/A   Overcast
3:35 PM 38.3 °F 28.4 °F 34.7 °F 87% 29.24 in 10.0 mi SW 19.6 mph 23.0 mph N/A   Overcast
3:55 PM 38.3 °F 29.0 °F 34.3 °F 86% 29.23 in 10.0 mi SW 17.3 mph 23.0 mph N/A   Overcast
4:15 PM 37.2 °F 29.1 °F 34.2 °F 89% 29.25 in 7.0 mi WNW 12.7 mph 23.0 mph N/A Rain Rain
4:35 PM 32.9 °F 23.2 °F 31.8 °F 96% 29.25 in 2.5 mi NW 13.8 mph 20.7 mph 0.01 in Snow Light Snow
4:55 PM 32.0 °F 21.2 °F 31.6 °F 99% 29.28 in 1.5 mi NW 16.1 mph 23.0 mph 0.01 in Snow Light Snow
5:15 PM 31.3 °F 19.5 °F 30.9 °F 99% 29.29 in 1.0 mi NW 18.4 mph 24.2 mph N/A Snow Light Snow
5:35 PM 30.7 °F 20.0 °F 29.8 °F 96% 29.31 in 3.0 mi NW 15.0 mph 23.0 mph N/A Snow Light Snow
6:15 PM 29.8 °F 18.0 °F 28.2 °F 94% 29.35 in 3.0 mi NW 17.3 mph 26.5 mph N/A Snow Light Snow
6:35 PM 29.3 °F 19.1 °F 27.3 °F 92% 29.37 in 4.0 mi WNW 12.7 mph 25.3 mph N/A Snow Light Snow
6:55 PM 29.3 °F 20.8 °F 27.5 °F 93% 29.38 in 2.5 mi WNW 9.2 mph 17.3 mph N/A Snow Light Snow
7:15 PM 29.1 °F 17.5 °F 26.2 °F 89% 29.39 in 4.0 mi WNW 16.1 mph 25.3 mph N/A Snow Light Snow
7:35 PM 28.8 °F 17.5 °F 25.7 °F 88% 29.40 in 7.0 mi WNW 15.0 mph 24.2 mph N/A Snow Light Snow
7:55 PM 28.4 °F 18.0 °F 25.7 °F 90% 29.40 in 4.0 mi WNW 12.7 mph 24.2 mph N/A Snow Light Snow
8:15 PM 28.4 °F 18.5 °F 25.7 °F 90% 29.41 in 2.5 mi WNW 11.5 mph 23.0 mph N/A Snow Light Snow
8:35 PM 28.6 °F 19.3 °F 25.7 °F 89% 29.42 in 2.5 mi WNW 10.4 mph 18.4 mph N/A Snow Light Snow
8:55 PM 28.2 °F 19.5 °F 26.1 °F 92% 29.44 in 1.5 mi WNW 9.2 mph 26.5 mph N/A Snow Light Snow
9:15 PM 27.3 °F 17.1 °F 24.8 °F 90% 29.45 in 2.0 mi WNW 11.5 mph 21.9 mph N/A Snow Light Snow
9:35 PM 27.0 °F 17.3 °F 24.3 °F 90% 29.47 in 1.2 mi WNW 10.4 mph 19.6 mph N/A Snow Light Snow
9:55 PM 27.0 °F 14.7 °F 24.1 °F 89% 29.48 in 4.0 mi WNW 16.1 mph 24.2 mph N/A Snow Light Snow
10:15 PM 26.1 °F 14.0 °F 21.6 °F 83% 29.50 in 3.0 mi WNW 15.0 mph 34.5 mph N/A Snow Light Snow
10:35 PM 24.6 °F 9.7 °F 18.7 °F 78% 29.52 in 3.0 mi WNW 21.9 mph 33.4 mph N/A Snow Light Snow
10:55 PM 23.9 °F 12.3 °F 17.8 °F 77% 29.53 in 7.0 mi WNW 12.7 mph 26.5 mph N/A Snow Light Snow
11:15 PM 23.9 °F 12.3 °F 18.5 °F 80% 29.54 in 4.0 mi WNW 12.7 mph 32.2 mph N/A Snow Light Snow
11:35 PM 23.9 °F 10.8 °F 20.1 °F 85% 29.55 in 1.8 mi West 16.1 mph 23.0 mph N/A Snow Light Snow
11:55 PM 23.0 °F 8.7 °F 20.3 °F 89% 29.56 in 1.5 mi West 18.4 mph 24.2 mph N/A Snow Light Snow